Weather in Makiivka

Ukraine / Chernihiv Region     50°25′20″N   32°29′53″E
temp.,
°C
wind,
m/s
gust,
m/s
humid.,
%
clouds,
%
prec.,
mm/h
press.,
hPa
HPBL,
m
17 september, fri
fri1700:00+11ese3449100 0.0 101958
03:00+10se345698 0.0 101863
06:00+12sse3752100 0.0 1016166
09:00+14sse4856100 0.0 1015260
12:00+19s5740100 0.0 1014609
15:00+19sse4839100 0.0 1012433
18:00+20ese4737100 0.0 1010179
21:00+15sse3786100 1.6 1011213
18 september, sat
sat1800:00+15se61381100 0.7 1010414
03:00+15sse61183100 0.9 1009424
06:00+14sse51097100 2.5 1009417
09:00+15se61384100 2.9 1008643
12:00+14sse81590100 1.8 1008667
15:00+14sse81688100 5.5 1008671
18:00+14sse5109280 1.5 1009432
21:00+13sse489489 1.5 1010275
19 september, sun
sun1900:00+12se2595100 0.0 1010214
03:00+11se119719 0.0 101010
06:00+10wnw11977 0.0 101010
09:00+14nnw018415 0.0 1010224
12:00+18sw226190 0.0 1010998
15:00+17wsw226891 0.3 1009281
18:00+16s1179100 1.4 100829
21:00+13wnw2392100 3.1 100988
20 september, mon
mon2000:00+13w4596100 2.4 1009295
03:00+10w4691100 2.8 1009357
06:00+8wsw3893100 0.0 1009343
09:00+9sw4783100 0.0 1010656
12:00+10wsw5770100 0.0 1010981
15:00+12wsw5765100 0.1 10101250
18:00+10wsw4875100 0.0 1011773
21:00+10wsw5880100 0.0 1012605
21 september, tue
tue2100:00+9wsw588285 0.0 1012662
03:00+9wsw4783100 0.0 1013559
06:00+8wsw4782100 0.0 1013570
09:00+9wsw5778100 0.0 1014692
12:00+10w5771100 0.0 10151023
15:00+10w5768100 0.1 10161272
18:00+9w4775100 0.1 1017931
21:00+8w4779100 0.1 1017784